Terminal Aerodrome Forecast
Issued by NWS Cleveland, OH

Home | Current Version | Previous Version | Graphics & Text | Print | Product List | Glossary On
Versions: 1 2 3 4 5 6 7 8 9 10 11 12 13 14 15 16 17 18 19 20 21 22 23 24 25 26 27 28 29 30 31 32
000
FTUS41 KCLE 291155
TAFCLE
TAF
KCLE 291155Z 2912/3018 18007KT P6SM SCT100 BKN250
     FM291500 20010G18KT P6SM SCT050 BKN250
     FM292200 22010G18KT P6SM VCTS SCT035 BKN050CB
     FM300100 24007KT P6SM SCT100=

USA.gov is the U.S. government's official web portal to all federal, state and local government web resources and services.